Location: Chenereilles
(45.4866°N, 4.0790°E)
Time: 01:11:25
(UTC+00:00)

Cosmos 2227 Rocket - Pass Details

Date: 12 November 2019
Orbit: 838 x 846 km, 71.0° (Epoch: 06 December)

Event Time Altitude Azimuth Distance (km) Brightness Sun altitude
Rises 19:23:15 0° 322° (NW) 3,414 5.9 -32.7°
Reaches altitude 10° 19:26:11 10° 308° (NW) 2,473 5.3 -33.2°
Maximum altitude 19:30:28 23° 259° (W) 1,743 4.4 -33.9°
Drops below altitude 10° 19:34:44 10° 210° (SSW) 2,456 4.8 -34.7°
Enters shadow 19:36:49 - 198° (SSW) 3,103 5.2 -35.0°
